| time (UTC) | temp F | wind direction | speed knots | gust knots | rain 1hr in | rain 24hr in | rain mn in | humidity % | barometer mb |
| 20260506091320 | 65 | 289 | 0.0 | 0.0 | 0.00 | 0.00 | 0.00 | 34 | 1014.6 |
| 20260506090335 | 65 | 289 | 0.0 | 0.0 | 0.00 | 0.00 | 0.00 | 33 | 1014.5 |
| 20260506085334 | 66 | 288 | 0.0 | 0.0 | 0.00 | 0.00 | 0.00 | 33 | 1014.4 |
| 20260506084329 | 66 | 288 | 0.0 | 0.0 | 0.00 | 0.00 | 0.00 | 32 | 1014.2 |
| 20260506083324 | 66 | 288 | 0.0 | 0.0 | 0.00 | 0.00 | 0.00 | 31 | 1014.2 |
| 20260506082322 | 66 | 283 | 0.0 | 0.0 | 0.00 | 0.00 | 0.00 | 31 | 1014.2 |
| 20260506081337 | 66 | 284 | 0.0 | 0.0 | 0.00 | 0.00 | 0.00 | 31 | 1014.3 |
| 20260506080332 | 66 | 294 | 0.0 | 0.0 | 0.00 | 0.00 | 0.00 | 31 | 1014.4 |
| 20260506073327 | 67 | 280 | 0.0 | 0.0 | 0.00 | 0.00 | 0.00 | 29 | 1014.6 |
| 20260506072321 | 68 | 293 | 0.0 | 0.0 | 0.00 | 0.00 | 0.00 | 29 | 1014.6 |
| 20260506071320 | 68 | 304 | 0.0 | 0.0 | 0.00 | 0.00 | 0.00 | 27 | 1014.6 |
| 20260506070338 | 68 | 299 | 0.0 | 0.0 | 0.00 | 0.00 | 0.00 | 27 | 1014.6 |
| 20260506062324 | 65 | 306 | 0.0 | 0.0 | 0.00 | 0.00 | 0.00 | 33 | 1014.5 |
| 20260506061339 | 64 | 306 | 0.0 | 0.0 | 0.00 | 0.00 | 0.00 | 34 | 1014.5 |
| 20260506060338 | 64 | 307 | 0.0 | 0.0 | 0.00 | 0.00 | 0.00 | 36 | 1014.4 |
| 20260506051325 | 67 | 307 | 0.0 | 0.0 | 0.00 | 0.00 | 0.00 | 33 | 1014.3 |
| 20260506050322 | 67 | 307 | 0.0 | 0.0 | 0.00 | 0.00 | 0.00 | 31 | 1014.3 |
| 20260506044329 | 68 | 307 | 0.0 | 0.0 | 0.00 | 0.00 | 0.00 | 31 | 1014.0 |
| 20260506043327 | 68 | 307 | 0.0 | 0.0 | 0.00 | 0.00 | 0.00 | 29 | 1014.0 |
| 20260506042325 | 68 | 307 | 0.0 | 0.0 | 0.00 | 0.00 | 0.00 | 30 | 1014.1 |
| 20260506041320 | 69 | 307 | 0.0 | 0.0 | 0.00 | 0.00 | 0.00 | 30 | 1013.7 |
| 20260506040335 | 70 | 307 | 0.0 | 0.0 | 0.00 | 0.00 | 0.00 | 29 | 1013.5 |
| 20260506035334 | 70 | 306 | 0.0 | 0.0 | 0.00 | 0.00 | 0.00 | 28 | 1013.4 |
| 20260506034329 | 70 | 307 | 0.0 | 0.0 | 0.00 | 0.00 | 0.00 | 28 | 1013.5 |
| 20260506033327 | 71 | 310 | 0.0 | 0.0 | 0.00 | 0.00 | 0.00 | 27 | 1013.0 |
| 20260506032321 | 72 | 315 | 0.0 | 0.0 | 0.00 | 0.00 | 0.00 | 26 | 1012.9 |
| 20260506031339 | 72 | 302 | 0.0 | 0.0 | 0.00 | 0.00 | 0.00 | 25 | 1012.8 |
| 20260506030332 | 73 | 309 | 0.0 | 8.7 | 0.00 | 0.00 | 0.00 | 25 | 1012.6 |
| 20260506025330 | 73 | 302 | 5.2 | 13.9 | 0.00 | 0.00 | 0.00 | 25 | 1012.4 |
| 20260506024329 | 72 | 309 | 0.0 | 0.0 | 0.00 | 0.00 | 0.00 | 27 | 1012.5 |
| 20260506023327 | 72 | 277 | 0.0 | 0.0 | 0.00 | 0.00 | 0.00 | 27 | 1012.6 |
| 20260506022321 | 73 | 292 | 0.0 | 5.2 | 0.00 | 0.00 | 0.00 | 26 | 1012.7 |
| 20260506021335 | 73 | 319 | 5.2 | 11.3 | 0.00 | 0.00 | 0.00 | 26 | 1012.3 |
| 20260506020334 | 73 | 306 | 0.0 | 0.0 | 0.00 | 0.00 | 0.00 | 25 | 1012.3 |
| 20260506015329 | 73 | 311 | 0.0 | 3.5 | 0.00 | 0.00 | 0.00 | 25 | 1012.3 |
| 20260506014324 | 73 | 311 | 1.7 | 8.7 | 0.00 | 0.00 | 0.00 | 24 | 1012.9 |
| 20260506013323 | 74 | 315 | 0.0 | 6.1 | 0.00 | 0.00 | 0.00 | 24 | 1012.6 |
| 20260506012336 | 74 | 298 | 3.5 | 9.6 | 0.00 | 0.00 | 0.00 | 24 | 1012.7 |
| 20260506011331 | 74 | 308 | 4.3 | 7.8 | 0.00 | 0.00 | 0.00 | 24 | 1012.5 |
| 20260506010330 | 75 | 305 | 4.3 | 8.7 | 0.00 | 0.00 | 0.00 | 23 | 1012.6 |
| 20260506005325 | 75 | 306 | 4.3 | 8.7 | 0.00 | 0.00 | 0.00 | 23 | 1012.9 |
| 20260506004340 | 75 | 281 | 0.0 | 0.9 | 0.00 | 0.00 | 0.00 | 22 | 1012.9 |
| 20260506003334 | 76 | 279 | 0.0 | 0.0 | 0.00 | 0.00 | 0.00 | 22 | 1012.7 |
| 20260506002334 | 76 | 310 | 0.0 | 0.0 | 0.00 | 0.00 | 0.00 | 22 | 1012.6 |
| 20260506001329 | 76 | 300 | 1.7 | 7.0 | 0.00 | 0.00 | 0.00 | 22 | 1012.6 |
| 20260506000327 | 76 | 298 | 4.3 | 10.4 | 0.00 | 0.00 | 0.00 | 21 | 1012.5 |
| 20260505235324 | 77 | 321 | 6.1 | 11.3 | 0.00 | 0.00 | 0.00 | 21 | 1012.4 |
| 20260505234322 | 78 | 306 | 6.1 | 9.6 | 0.00 | 0.00 | 0.00 | 20 | 1012.3 |
| 20260505233337 | 79 | 313 | 7.0 | 10.4 | 0.00 | 0.00 | 0.00 | 20 | 1012.2 |
| 20260505232331 | 79 | 321 | 4.3 | 13.0 | 0.00 | 0.00 | 0.00 | 20 | 1012.1 |
| 20260505231329 | 80 | 293 | 0.0 | 11.3 | 0.00 | 0.00 | 0.00 | 19 | 1012.3 |
| 20260505230327 | 80 | 282 | 5.2 | 10.4 | 0.00 | 0.00 | 0.00 | 20 | 1012.3 |
| 20260505225319 | 79 | 259 | 7.0 | 14.8 | 0.00 | 0.00 | 0.00 | 21 | 1012.4 |
| 20260505224319 | 80 | 344 | 7.0 | 12.2 | 0.00 | 0.00 | 0.00 | 21 | 1012.4 |
| 20260505223317 | 79 | 313 | 4.3 | 11.3 | 0.00 | 0.00 | 0.00 | 20 | 1012.5 |
| 20260505222333 | 79 | 282 | 7.0 | 15.6 | 0.00 | 0.00 | 0.00 | 20 | 1012.6 |
| 20260505221333 | 79 | 301 | 1.7 | 12.2 | 0.00 | 0.00 | 0.00 | 20 | 1012.5 |
| 20260505220328 | 79 | 313 | 7.8 | 14.8 | 0.00 | 0.00 | 0.00 | 20 | 1012.9 |
| 20260505215325 | 78 | 227 | 2.6 | 12.2 | 0.00 | 0.00 | 0.00 | 21 | 1013.1 |
| 20260505214323 | 77 | 321 | 4.3 | 14.8 | 0.00 | 0.00 | 0.00 | 21 | 1013.2 |
| 20260505213322 | 77 | 305 | 13.0 | 16.5 | 0.00 | 0.00 | 0.00 | 20 | 1013.2 |
| 20260505212338 | 77 | 294 | 11.3 | 16.5 | 0.00 | 0.00 | 0.00 | 20 | 1013.2 |
| 20260505211333 | 77 | 267 | 12.2 | 16.5 | 0.00 | 0.00 | 0.00 | 20 | 1013.2 |
| 20260505210332 | 78 | 281 | 7.0 | 16.5 | 0.00 | 0.00 | 0.00 | 19 | 1013.2 |
| 20260505205328 | 78 | 276 | 7.8 | 15.6 | 0.00 | 0.00 | 0.00 | 20 | 1013.5 |
| 20260505204322 | 79 | 284 | 7.8 | 16.5 | 0.00 | 0.00 | 0.00 | 20 | 1013.4 |
| 20260505203321 | 80 | 292 | 9.6 | 15.6 | 0.00 | 0.00 | 0.00 | 20 | 1013.5 |
| 20260505202334 | 80 | 309 | 5.2 | 13.0 | 0.00 | 0.00 | 0.00 | 21 | 1013.7 |
| 20260505201330 | 79 | 284 | 7.0 | 14.8 | 0.00 | 0.00 | 0.00 | 22 | 1013.6 |
| 20260505200326 | 81 | 321 | 9.6 | 15.6 | 0.00 | 0.00 | 0.00 | 22 | 1013.8 |
| 20260505195325 | 80 | 230 | 2.6 | 12.2 | 0.00 | 0.00 | 0.00 | 22 | 1013.7 |
| 20260505194319 | 81 | 265 | 3.5 | 15.6 | 0.00 | 0.00 | 0.00 | 23 | 1014.1 |
| 20260505193333 | 81 | 223 | 5.2 | 13.0 | 0.00 | 0.00 | 0.00 | 23 | 1013.8 |
| 20260505192331 | 81 | 298 | 7.8 | 12.2 | 0.00 | 0.00 | 0.00 | 23 | 1014.0 |
| 20260505191326 | 80 | 240 | 1.7 | 13.9 | 0.00 | 0.00 | 0.00 | 24 | 1013.9 |
| 20260505190325 | 80 | 296 | 6.1 | 14.8 | 0.00 | 0.00 | 0.00 | 23 | 1014.1 |
| 20260505185323 | 80 | 241 | 4.3 | 13.9 | 0.00 | 0.00 | 0.00 | 23 | 1014.1 |
| 20260505184324 | 79 | 230 | 6.1 | 11.3 | 0.00 | 0.00 | 0.00 | 24 | 1014.3 |
| 20260505183320 | 78 | 228 | 7.0 | 14.8 | 0.00 | 0.00 | 0.00 | 25 | 1014.4 |
| 20260505182333 | 78 | 302 | 8.7 | 14.8 | 0.00 | 0.00 | 0.00 | 25 | 1014.4 |
| 20260505181332 | 79 | 273 | 5.2 | 13.0 | 0.00 | 0.00 | 0.00 | 25 | 1014.4 |
| 20260505180328 | 78 | 294 | 5.2 | 11.3 | 0.00 | 0.00 | 0.00 | 26 | 1014.5 |
| 20260505175324 | 78 | 276 | 3.5 | 10.4 | 0.00 | 0.00 | 0.00 | 26 | 1014.6 |
| 20260505174324 | 77 | 276 | 4.3 | 13.9 | 0.00 | 0.00 | 0.00 | 27 | 1014.4 |
| 20260505173338 | 76 | 290 | 5.2 | 13.9 | 0.00 | 0.00 | 0.00 | 27 | 1014.6 |
| 20260505172333 | 76 | 252 | 4.3 | 10.4 | 0.00 | 0.00 | 0.00 | 27 | 1015.0 |
| 20260505171328 | 76 | 313 | 5.2 | 12.2 | 0.00 | 0.00 | 0.00 | 27 | 1015.0 |
| 20260505170329 | 75 | 292 | 7.8 | 14.8 | 0.00 | 0.00 | 0.00 | 27 | 1015.0 |
| 20260505165324 | 75 | 277 | 5.2 | 14.8 | 0.00 | 0.00 | 0.00 | 29 | 1015.0 |
| 20260505164323 | 75 | 279 | 5.2 | 15.6 | 0.00 | 0.00 | 0.00 | 28 | 1015.0 |
| 20260505163324 | 75 | 295 | 7.8 | 16.5 | 0.00 | 0.00 | 0.00 | 28 | 1014.8 |
| 20260505162338 | 74 | 276 | 7.0 | 11.3 | 0.00 | 0.00 | 0.00 | 29 | 1014.9 |
| 20260505161334 | 73 | 283 | 2.6 | 12.2 | 0.00 | 0.00 | 0.00 | 30 | 1014.7 |
| 20260505160328 | 73 | 315 | 6.1 | 11.3 | 0.00 | 0.00 | 0.00 | 29 | 1014.7 |
| 20260505153320 | 74 | 308 | 0.0 | 10.4 | 0.00 | 0.00 | 0.00 | 29 | 1014.3 |
| 20260505152338 | 73 | 270 | 4.3 | 11.3 | 0.00 | 0.00 | 0.00 | 29 | 1014.3 |
| 20260505151330 | 72 | 267 | 8.7 | 13.0 | 0.00 | 0.00 | 0.00 | 29 | 1014.2 |
| 20260505150323 | 71 | 288 | 5.2 | 12.2 | 0.00 | 0.00 | 0.00 | 30 | 1014.1 |
| 20260505140338 | 68 | 273 | 7.0 | 13.9 | 0.00 | 0.00 | 0.00 | 30 | 1013.8 |
| 20260505124328 | 65 | 217 | 3.5 | 5.2 | 0.00 | 0.00 | 0.00 | 34 | 1012.9 |
| 20260505123329 | 65 | 269 | 0.0 | 2.6 | 0.00 | 0.00 | 0.00 | 34 | 1012.8 |
| 20260505122326 | 66 | 292 | 0.0 | 2.6 | 0.00 | 0.00 | 0.00 | 32 | 1012.9 |
| 20260505121324 | 66 | 267 | 0.0 | 4.3 | 0.00 | 0.00 | 0.00 | 32 | 1012.8 |
| 20260505120323 | 67 | 281 | 0.0 | 4.3 | 0.00 | 0.00 | 0.00 | 32 | 1012.9 |
| 20260505115338 | 67 | 302 | 0.9 | 8.7 | 0.00 | 0.00 | 0.00 | 31 | 1012.7 |
| 20260505114333 | 66 | 294 | 5.2 | 9.6 | 0.00 | 0.00 | 0.00 | 32 | 1012.7 |
| 20260505113328 | 65 | 277 | 0.0 | 0.0 | 0.00 | 0.00 | 0.00 | 33 | 1012.8 |
| 20260505112326 | 64 | 243 | 0.0 | 0.0 | 0.00 | 0.00 | 0.00 | 34 | 1012.8 |
| 20260505111324 | 63 | 244 | 0.0 | 0.0 | 0.00 | 0.00 | 0.00 | 34 | 1012.7 |
| 20260505110319 | 64 | 269 | 0.0 | 1.7 | 0.00 | 0.00 | 0.00 | 34 | 1012.7 |
| 20260505101324 | 66 | 296 | 0.0 | 4.3 | 0.00 | 0.00 | 0.00 | 31 | 1013.0 |
| 20260505100322 | 67 | 299 | 3.5 | 4.3 | 0.00 | 0.00 | 0.00 | 29 | 1012.8 |
| 20260505095317 | 68 | 304 | 0.0 | 0.0 | 0.00 | 0.00 | 0.00 | 29 | 1012.8 |
| 20260505094319 | 68 | 296 | 0.0 | 0.0 | 0.00 | 0.00 | 0.00 | 29 | 1012.9 |
| 20260505093334 | 68 | 302 | 0.0 | 0.0 | 0.00 | 0.00 | 0.00 | 29 | 1013.0 |
| 20260505092328 | 68 | 286 | 0.0 | 0.0 | 0.00 | 0.00 | 0.00 | 29 | 1012.9 |